SCP
0 0 0 0 0 0 0 0 0 0 0 0 0 0 0 0 0 0 0 0 0 0 0 1 1 1 1 1 1 1 1 2 2 2 2 2 2 1 1 1 1 0 0 0
0 0 0 0 0 0 0 0 0 0 0 0 0 0 0 0 0 0 0 0 0 0 0 1 1 1 1 1 1 2 2 2 3 3 2 2 2 1 1 1 1 1 0 0
0 0 0 0 0 0 0 0 0 0 0 0 0 0 0 0 0 0 0 0 0 0 1 1 2 2 2 2 2 2 3 4 4 3 3 2 2 1 1 1 1 1 0 0
0 0 0 0 0 0 0 0 0 0 0 0 0 0 0 0 0 0 0 0 0 0 1 2 2 3 3 3 3 3 4 4 4 3 3 2 2 1 1 1 1 1 0 0
0 0 0 0 0 0 0 0 0 0 0 0 0 0 0 0 0 0 0 0 0 1 1 2 3 3 4 4 4 4 4 4 4 3 3 2 2 1 1 1 1 1 0 0
0 0 0 0 0 0 0 0 0 0 0 0 0 0 0 0 0 0 0 0 1 1 2 2 3 3 4 4 4 4 4 4 4 3 2 2 1 1 1 1 1 1 0 0
0 0 0 0 0 0 0 0 0 0 0 0 0 0 0 0 0 0 0 0 1 1 2 2 3 3 4 4 4 4 3 3 2 2 2 1 1 1 1 1 1 0 0 0
0 0 0 0 0 0 0 0 0 0 0 0 0 0 0 0 0 0 0 0 1 1 2 2 3 3 3 4 4 3 2 2 1 1 1 1 0 1 0 0 0 0 0 0
0 0 0 0 0 0 0 0 0 0 0 0 0 0 0 0 0 0 0 0 0 1 2 2 3 3 3 2 2 2 1 1 1 0 0 0 0 0 0 0 0 0 0 0
0 0 0 0 0 0 0 0 0 0 0 0 0 0 0 0 0 0 0 0 0 1 1 2 2 2 2 1 1 1 1 1 1 0 0 0 0 0 0 0 0 0 0 0
0 0 0 0 0 0 0 0 0 0 0 0 0 0 0 0 0 0 0 0 0 0 1 1 1 1 1 1 1 1 1 1 1 1 0 0 0 0 0 0 0 0 0 0
0 0 0 0 0 0 0 0 0 0 0 0 0 0 0 0 0 0 0 0 0 0 0 0 0 0 0 0 0 1 1 1 1 1 0 0 0 0 0 0 0 0 0 0
0 0 0 0 0 0 0 0 0 0 0 0 0 0 0 0 0 0 0 0 0 0 0 0 0 0 0 0 0 1 1 1 1 1 1 0 0 0 0 0 0 0 0 0
0 0 0 0 0 0 0 0 0 0 0 0 0 0 0 0 0 0 0 0 0 0 0 0 0 0 0 0 0 1 1 1 1 1 1 1 1 0 0 0 0 0 0 0
0 0 0 0 0 0 0 0 0 0 0 0 0 0 0 0 0 0 0 0 0 0 0 0 0 1 0 0 0 1 1 1 1 1 1 1 1 1 0 0 0 0 0 1
0 0 0 0 0 0 0 0 0 0 0 0 0 0 0 0 0 0 0 0 0 0 0 0 0 1 1 1 0 1 1 1 1 1 1 1 1 1 0 0 0 0 0 0
0 0 0 0 0 0 0 0 0 0 0 0 0 0 0 0 0 0 0 0 0 0 0 0 0 0 0 0 0 0 1 1 1 1 1 1 1 1 0 0 0 0 0 0
0 0 0 0 0 0 0 0 0 0 0 0 0 0 0 0 0 0 0 0 0 0 0 0 0 0 0 0 0 0 0 0 0 0 0 1 0 0 0 0 1 0 0 0
0 0 0 0 0 0 0 0 0 0 0 0 0 0 0 0 0 0 0 0 0 0 0 0 0 0 0 0 0 0 0 0 0 0 0 0 0 0 0 0 0 0 0 0
0 0 0 0 0 0 0 0 0 0 0 0 0 0 0 0 0 0 0 0 0 0 0 0 0 0 0 0 0 0 0 0 0 0 0 0 0 0 0 0 0 0 0 0
0 0 0 0 0 0 0 0 0 0 0 0 0 0 0 0 0 0 0 0 0 0 0 0 0 0 0 0 0 0 0 0 0 0 0 0 0 0 0 0 0 0 0 0
0 0 0 0 0 0 0 0 0 0 0 0 0 0 0 0 0 0 0 0 0 0 0 0 0 0 0 0 0 0 0 0 0 0 0 0 0 0 0 0 0 0 0 0
0 0 0 0 0 0 0 0 0 0 0 0 0 0 0 0 0 0 0 0 0 0 0 0 0 0 0 0 0 0 0 0 0 0 0 0 0 0 0 0 0 0 0 0
0 0 0 0 0 0 0 0 0 0 0 0 0 0 0 0 0 0 0 0 0 0 0 0 0 0 0 0 0 0 0 0 0 0 0 0 0 0 0 0 0 0 0 0
0 0 0 0 0 0 0 0 0 0 0 0 0 0 0 0 0 0 0 0 0 0 0 0 0 0 0 0 0 0 0 0 0 0 0 0 0 0 0 0 0 0 0 0
0 0 0 0 0 0 0 0 0 0 0 0 0 0 0 0 0 0 0 0 0 0 0 0 0 0 0 0 0 0 0 0 0 0 0 0 0 0 0 0 0 0 0 0
Wind_Speed
1 3 1 5 6 5 3 4 5 5 4 2 4 7 9 7 6 7 6 6 7 10 9 7 12 15 14 13 12 12 10 10 8 6 5 5 5 4 4 5 6 6 5 4
4 2 6 5 4 3 3 4 5 5 3 4 6 9 9 8 7 7 8 8 9 9 6 5 9 12 13 12 11 10 9 9 9 7 5 3 3 3 3 4 5 6 5 5
4 6 4 4 4 4 5 5 5 6 3 2 4 8 7 6 5 6 7 8 9 12 10 9 9 9 11 10 10 9 8 8 8 8 5 4 3 2 2 3 4 6 5 5
4 4 2 4 6 5 6 7 6 3 1 4 2 6 8 7 7 7 9 8 8 10 11 11 11 11 12 10 8 9 9 9 8 8 7 7 5 4 5 4 4 5 5 5
5 4 4 5 8 5 6 3 2 1 1 2 2 3 8 7 10 13 13 11 7 5 9 12 12 12 12 11 9 8 8 8 7 7 7 6 4 3 3 2 4 4 4 5
5 4 2 3 5 1 2 4 5 4 4 2 4 3 5 6 10 16 18 17 12 3 6 9 9 10 11 11 9 7 7 6 6 7 6 6 6 4 4 3 3 3 2 3
8 7 6 7 10 8 6 5 4 4 2 6 3 2 1 7 11 13 16 17 15 10 4 9 10 10 10 11 10 7 7 6 5 6 5 4 5 4 4 4 4 3 2 2
6 7 7 8 5 6 4 3 4 4 4 4 3 2 3 6 9 13 15 16 16 15 11 5 5 7 8 10 9 8 7 6 5 4 3 3 4 3 2 3 3 3 2 2
4 6 7 9 8 5 5 2 2 3 2 3 4 0 2 10 14 17 17 18 17 14 12 10 6 3 5 8 7 8 7 5 4 3 2 3 4 4 4 3 3 2 2 2
2 5 5 7 8 8 4 2 3 2 1 3 3 3 6 14 14 14 15 14 13 13 12 11 9 6 2 2 4 6 6 5 4 4 3 3 4 5 4 4 3 3 2 2
4 1 7 7 5 5 6 4 3 1 1 1 0 3 6 9 10 10 10 10 9 10 9 8 6 6 6 3 3 5 6 5 4 4 3 4 4 4 4 4 3 3 3 3
3 3 3 5 3 2 3 2 1 1 1 1 2 1 7 9 9 8 9 9 8 6 4 4 5 8 8 5 4 4 5 5 5 5 5 5 4 4 4 3 3 4 4 3
3 5 5 8 6 5 5 5 1 2 2 1 2 2 8 10 11 10 10 9 7 6 6 6 7 9 10 7 6 6 6 6 5 4 4 3 3 4 4 4 4 4 4 4
4 3 1 3 5 3 6 10 7 1 2 4 4 4 11 15 15 13 11 10 8 6 5 6 7 8 8 7 5 5 4 4 4 4 4 3 3 4 5 4 4 5 5 5
4 2 3 3 9 12 14 15 14 11 7 5 6 7 13 16 14 12 11 12 12 11 9 5 4 4 4 3 2 1 1 3 4 5 3 2 4 4 4 4 4 5 5 6
5 2 3 5 10 13 15 17 15 12 11 9 8 8 13 14 11 12 14 15 15 14 13 12 10 8 8 7 6 5 6 5 5 4 2 2 2 2 2 2 3 3 4 4
4 3 3 3 2 4 11 12 11 9 10 8 8 8 14 15 15 13 13 14 13 12 12 12 11 10 10 9 10 10 9 9 9 8 6 5 5 5 4 3 1 2 3 3
2 2 3 2 4 6 2 4 5 4 8 9 8 9 13 15 12 6 9 12 11 10 10 9 8 8 8 9 9 9 9 9 8 7 6 6 5 5 5 5 4 3 1 2
5 4 4 3 4 3 2 3 4 3 2 7 9 12 14 15 8 5 11 14 8 5 5 5 6 6 7 7 6 7 8 7 7 6 5 5 4 5 5 5 4 3 2 1
7 7 5 4 4 2 3 7 4 2 0 6 9 12 14 13 9 9 16 15 9 4 4 5 5 6 6 5 6 7 6 6 5 4 4 4 4 4 4 4 3 3 2 2
6 6 5 4 3 1 4 6 4 2 4 9 8 9 10 6 5 11 15 12 6 2 3 4 4 4 3 3 5 6 5 4 3 3 3 4 4 4 4 4 3 3 3 3
2 2 2 2 2 3 3 3 2 3 4 5 7 7 8 9 11 11 12 10 6 1 2 3 3 3 3 3 4 4 4 3 2 3 4 4 5 5 5 5 5 5 5 4
3 5 4 3 4 3 1 2 4 4 4 5 5 8 9 9 10 12 10 10 5 2 0 1 2 2 3 3 2 3 4 3 2 4 4 3 4 5 5 6 7 5 6 5
2 2 3 2 1 2 3 3 3 4 5 7 7 8 7 8 10 11 10 8 6 3 1 0 2 2 2 2 2 2 3 3 4 4 2 2 3 4 5 5 5 5 6 5
5 3 3 2 2 2 3 3 4 4 5 6 7 6 6 7 8 7 8 8 7 5 3 1 1 1 1 1 1 2 3 4 4 3 1 2 2 2 3 4 5 5 5 4
5 6 6 5 6 5 4 4 3 3 4 5 5 6 7 6 7 7 7 7 7 6 4 3 2 1 1 2 2 1 1 3 3 2 1 1 1 0 1 1 2 6 5 8
Wind_Direction
171 85 232 228 202 198 206 243 270 268 260 274 268 274 280 278 275 278 278 265 253 242 238 204 183 176 174 176 177 178 178 173 162 157 157 159 175 179 183 202 204 202 194 190
34 275 236 211 200 202 218 251 267 276 261 272 271 272 268 254 246 251 259 261 253 252 243 206 177 170 170 172 172 170 170 163 163 161 158 158 157 175 190 202 208 209 203 189
230 248 230 219 231 235 245 233 238 255 303 319 314 304 295 287 273 279 274 265 247 228 213 196 172 159 151 152 161 162 155 147 144 141 131 117 100 93 148 213 220 218 207 190
269 265 247 251 249 220 252 243 224 239 332 302 343 299 297 309 323 325 311 291 262 225 195 178 162 149 140 137 139 137 132 128 132 137 142 149 161 175 194 196 209 214 201 191
291 290 292 272 254 221 229 230 194 184 170 305 298 248 294 346 348 339 335 332 320 232 178 163 155 146 135 130 123 123 121 124 131 136 144 145 153 174 176 179 201 214 206 193
275 303 349 304 306 320 52 46 37 49 77 288 249 207 303 1 353 348 351 352 353 7 138 130 124 124 119 115 108 110 121 127 134 137 143 151 160 165 166 186 200 210 205 191
337 343 6 18 7 0 26 56 11 346 352 251 240 186 52 5 10 7 360 359 3 13 70 122 128 130 128 123 126 144 146 147 146 143 151 164 172 176 190 199 200 194 191 191
9 323 349 8 6 316 301 157 182 231 238 276 289 203 106 10 10 13 12 6 11 20 18 38 110 128 132 131 145 153 156 154 152 149 168 188 179 169 188 190 178 183 189 198
357 296 334 1 358 354 337 334 193 173 238 258 277 95 60 7 12 12 10 11 11 11 18 22 21 67 125 139 162 158 156 154 159 162 168 179 167 159 163 161 156 160 168 165
37 303 321 352 14 18 20 357 50 93 207 245 311 36 4 352 353 358 2 2 3 8 12 19 12 2 360 154 164 156 158 167 170 163 161 156 151 151 150 138 140 144 149 138
51 24 325 360 13 347 7 25 27 121 155 156 41 46 1 336 331 337 340 344 353 5 7 8 357 314 285 256 203 171 175 174 170 160 148 143 147 147 144 142 152 156 157 158
8 90 327 314 316 10 75 48 47 116 79 92 127 78 340 331 326 327 331 333 336 344 342 312 276 261 267 269 246 211 192 183 179 164 150 157 158 155 156 166 178 172 173 179
10 63 360 340 339 354 24 8 334 164 160 132 110 49 342 342 343 341 337 328 323 311 285 261 261 263 265 265 248 226 207 192 179 159 150 156 171 179 188 197 202 196 191 195
70 78 105 296 302 356 15 8 9 87 113 87 75 40 358 357 349 346 343 336 333 322 301 274 267 271 274 275 263 239 224 188 161 143 143 176 209 210 213 211 212 211 203 200
65 25 343 52 71 71 45 22 30 47 62 82 83 42 3 347 338 345 1 7 15 14 12 352 316 313 320 324 328 285 198 144 140 133 145 211 255 252 238 224 219 216 211 212
30 16 25 71 87 76 48 23 24 36 40 45 45 24 346 336 342 4 15 19 20 18 20 24 31 36 36 34 35 39 51 71 86 95 84 31 344 327 293 259 223 213 219 221
358 22 52 29 71 60 35 6 8 34 37 26 27 347 334 344 348 0 9 11 15 19 23 28 34 41 44 47 52 56 56 63 69 66 56 43 38 31 9 359 345 259 237 227
24 41 82 54 50 60 329 284 324 3 56 30 4 343 345 338 322 328 11 5 4 14 22 24 30 44 48 54 56 61 63 65 66 62 54 40 36 33 21 22 14 345 294 246
50 76 68 63 76 94 350 340 341 334 31 19 351 345 346 340 335 344 355 352 346 5 27 32 37 49 53 55 60 66 62 62 63 57 50 40 38 34 21 11 353 336 327 300
35 53 69 56 73 51 307 311 318 225 317 3 345 338 341 353 12 334 329 332 332 2 36 42 42 48 50 45 58 62 54 52 50 43 37 31 31 28 13 353 336 325 320 306
13 22 43 56 78 298 274 307 345 57 312 315 316 317 326 336 287 289 310 320 321 349 65 67 58 51 44 48 61 56 41 27 13 29 36 26 17 11 5 351 343 340 348 1
102 62 34 60 48 289 298 20 47 251 266 283 292 297 304 304 303 310 318 322 323 319 74 77 61 30 12 38 58 42 11 331 358 35 41 29 20 16 14 10 6 7 12 24
153 176 176 172 205 234 219 210 231 229 260 273 276 289 299 306 311 318 322 328 326 288 318 73 79 28 4 14 49 26 336 338 46 56 52 44 36 26 22 25 19 15 18 25
243 155 117 113 218 211 229 254 257 238 246 268 277 287 296 303 311 321 330 338 340 318 308 66 89 42 1 355 19 11 357 41 88 86 70 50 46 35 30 29 26 28 21 18
201 140 121 159 215 225 288 285 273 268 279 290 297 296 304 312 319 324 332 336 337 324 303 252 139 91 300 280 342 10 43 75 87 91 71 41 48 57 49 45 33 27 25 16
193 162 160 200 209 189 243 265 278 300 306 309 318 325 327 329 327 331 332 333 336 337 323 284 249 205 207 215 250 293 77 107 113 97 59 356 356 41 98 86 52 35 32 30